User: anonymous   Login
Location: Alma
(38.7220°N, 88.9090°W)
Time: 07:23:43
(UTC-06:00)
Language:

Transit 4A - Orbit

View from above orbital plane
View from above orbital plane
View from above satellite
View from above satellite

Ground track
Ground track

The orbit data is extracted from the following two-line orbital elements,

1   116U 61015A   19324.56651579 -.00000081 +00000-0 -30246-5 0  9995
2   116 066.8096 001.2956 0073544 160.9390 199.4468 13.91761644962616
Epoch (UTC): 20 November 2019 13:35:46
Eccentricity: 0.0073544
inclination: 66.8096°
perigee height: 869 km
apogee height: 976 km
right ascension of ascending node: 1.2956°
argument of perigee: 160.9390°
revolutions per day: 13.91761644
mean anomaly at epoch: 199.4468°
orbit number at epoch: 96261

The dashed part of the orbit path shows where the satellite is in the earth's shadow,  

DLR